Williamsport, PA

5:04 AM EDT on April 24, 2017 (GMT -0400)
Williamsport Rgnl

Weather History for KIPT - January, 2012

Change the Weather History Date:

Friday, January 13, 2012

  Actual Average Record
Temperature  
Mean Temperature 35 °F 26 °F  
Max Temperature 46 °F 34 °F 70 °F (1932)
Min Temperature 23 °F 19 °F -17 °F (1912)
Degree Days  
Heating Degree Days 30 39  
Month to date heating degree days 417 496  
Since 1 July heating degree days 2305 2789  
Cooling Degree Days 0 0  
Month to date cooling degree days 0 0  
Year to date cooling degree days 0 0  
Moisture  
Dew Point 24 °F    
Average Humidity 75    
Maximum Humidity 100    
Minimum Humidity 50    
Precipitation  
Precipitation 0.54 in 0.09 in 1.44 in (1915)
Month to date precipitation 1.60 1.10  
Year to date precipitation 1.60 1.10  
Snow  
Snow T in 0.40 in 19.60 in (1964)
Month to date snowfall 0.5 4.1  
Since 1 July snowfall 2.0 12.8  
Snow Depth T in    
Sea Level Pressure  
Sea Level Pressure 29.48 in    
Wind  
Wind Speed 19 mph (WSW)    
Max Wind Speed 35 mph    
Max Gust Speed 45 mph    
Visibility 7 miles    
Events Rain , Snow    
T = Trace of Precipitation, MM = Missing Value Source: NWS Daily Summary

Daily Weather History Graph

Daily Weather History Graph

Search for Another Location

Airport or City:

Trip Planner

Search our weather history database for the weather conditions in past years. The results will help you decide how hot, cold, wet, or windy it might be!

Date:

Astronomy

Jan. 13, 2012 Rise Set
Actual Time 7:32 AM EST 5:00 PM EST
Civil Twilight 7:01 AM EST 5:31 PM EST
Nautical Twilight 6:27 AM EST 6:05 PM EST
Astronomical Twilight 5:54 AM EST 6:38 PM EST
Moon 10:15 PM EST (1/13) 9:42 AM EST (1/13)
Length of Visible Light 10h 29m
Length of Day
9h 28m
Waning Gibbous, 79% of the Moon is Illuminated
Jan 13
Waning Gibbous
Jan 16
Last Quarter
Jan 23
New
Jan 30
First Quarter
Feb 7
Full

Hourly Weather History & Observations

Time (EST) Temp. Windchill Dew Point Humidity Pressure Visibility Wind Dir Wind Speed Gust Speed Precip Events Conditions
12:02 AM 42.8 °F 38.6 °F 42.8 °F 100% 29.32 in 6.0 mi East 6.9 mph - N/A   Overcast
12:43 AM 42.8 °F 36.6 °F 41.0 °F 93% 29.30 in 3.0 mi East 11.5 mph - 0.06 in Rain Heavy Rain
12:54 AM 44.1 °F 37.7 °F 42.1 °F 93% 29.30 in 4.0 mi SE 12.7 mph - 0.10 in Rain Heavy Rain
1:54 AM 43.0 °F 38.2 °F 42.1 °F 97% 29.25 in 5.0 mi ESE 8.1 mph - 0.14 in Rain Rain
2:15 AM 42.8 °F - 42.8 °F 100% 29.24 in 1.8 mi Calm Calm - 0.07 in Rain Heavy Rain
2:22 AM 42.8 °F - 42.8 °F 100% 29.24 in 2.0 mi Calm Calm - 0.12 in Rain Heavy Rain
2:29 AM 42.8 °F - 42.8 °F 100% 29.23 in 3.0 mi Calm Calm - 0.13 in Rain Rain
2:42 AM 42.8 °F - 41.0 °F 93% 29.23 in 2.0 mi Calm Calm - 0.16 in Rain Rain
2:54 AM 43.0 °F 41.3 °F 41.0 °F 93% 29.23 in 1.5 mi SW 3.5 mph - 0.18 in Rain Rain
3:29 AM 41.0 °F 30.0 °F 37.4 °F 87% 29.24 in 3.0 mi West 28.8 mph 34.5 mph 0.07 in Rain Rain
3:44 AM 39.2 °F 28.7 °F 35.6 °F 87% 29.26 in 8.0 mi West 23.0 mph 42.6 mph 0.07 in Rain Rain
3:54 AM 39.0 °F 28.8 °F 35.1 °F 86% 29.29 in 7.0 mi West 21.9 mph 38.0 mph 0.08 in Rain Rain
4:54 AM 36.0 °F 23.7 °F 32.0 °F 86% 29.32 in 9.0 mi West 26.5 mph 34.5 mph 0.04 in Snow Light Snow
5:16 AM 33.8 °F 22.2 °F 28.4 °F 81% 29.33 in 8.0 mi West 20.7 mph 35.7 mph 0.00 in Snow Light Snow
5:54 AM 30.9 °F 17.5 °F 26.1 °F 82% 29.36 in 2.5 mi West 24.2 mph 31.1 mph 0.00 in Snow Light Snow
6:17 AM 30.2 °F 16.2 °F 24.8 °F 80% 29.35 in 3.0 mi West 25.3 mph 32.2 mph 0.00 in Snow Light Snow
6:54 AM 28.4 °F 16.2 °F 23.0 °F 80% 29.38 in 7.0 mi WSW 17.3 mph 33.4 mph N/A Snow Light Snow
7:05 AM 28.4 °F 14.7 °F 21.2 °F 74% 29.39 in 9.0 mi West 21.9 mph 29.9 mph 0.00 in Snow Light Snow
7:32 AM 28.4 °F 13.0 °F 15.8 °F 59% 29.42 in 9.0 mi West 28.8 mph 44.9 mph 0.00 in Snow Light Snow
7:54 AM 27.0 °F 12.5 °F 15.1 °F 61% 29.46 in 10.0 mi West 23.0 mph 38.0 mph 0.00 in   Overcast
8:54 AM 24.8 °F 9.6 °F 12.2 °F 59% 29.48 in 10.0 mi WSW 23.0 mph 32.2 mph N/A   Overcast
9:54 AM 26.1 °F 11.6 °F 12.0 °F 55% 29.51 in 10.0 mi WSW 21.9 mph 36.8 mph N/A   Mostly Cloudy
10:54 AM 25.0 °F 8.6 °F 12.9 °F 60% 29.52 in 10.0 mi West 27.6 mph 38.0 mph 0.00 in   Overcast
11:54 AM 25.0 °F 9.5 °F 9.0 °F 51% 29.54 in 10.0 mi West 24.2 mph 36.8 mph 0.00 in   Overcast
12:54 PM 25.0 °F 9.5 °F 10.9 °F 55% 29.55 in 9.0 mi WSW 24.2 mph 31.1 mph 0.00 in Snow Light Snow
1:54 PM 24.1 °F 9.0 °F 14.0 °F 65% 29.58 in 4.0 mi WSW 21.9 mph 29.9 mph 0.00 in Snow Light Snow
2:10 PM 24.8 °F 10.3 °F 12.2 °F 59% 29.57 in 9.0 mi West 20.7 mph 38.0 mph 0.00 in Snow Light Snow
2:44 PM 24.8 °F 10.0 °F 14.0 °F 64% 29.59 in 3.0 mi WSW 21.9 mph 33.4 mph 0.00 in Snow Light Snow
2:54 PM 23.0 °F 8.0 °F 14.0 °F 68% 29.62 in 3.0 mi West 20.7 mph 34.5 mph 0.00 in Snow Light Snow
3:10 PM 23.0 °F 6.6 °F 15.8 °F 74% 29.61 in 7.0 mi WSW 25.3 mph 32.2 mph 0.00 in Snow Light Snow
3:54 PM 25.0 °F 11.7 °F 14.0 °F 63% 29.65 in 9.0 mi WSW 17.3 mph 33.4 mph 0.00 in   Overcast
4:54 PM 26.1 °F 14.0 °F 14.0 °F 60% 29.69 in 10.0 mi West 15.0 mph 29.9 mph N/A   Overcast
5:54 PM 26.1 °F 11.6 °F 12.9 °F 58% 29.73 in 10.0 mi West 21.9 mph 34.5 mph N/A   Overcast
6:54 PM 26.1 °F 12.7 °F 14.0 °F 60% 29.78 in 10.0 mi West 18.4 mph 26.5 mph N/A   Overcast
7:54 PM 26.1 °F 12.7 °F 14.0 °F 60% 29.81 in 10.0 mi West 18.4 mph 24.2 mph N/A   Overcast
8:54 PM 26.1 °F 12.7 °F 15.1 °F 63% 29.83 in 10.0 mi WSW 18.4 mph 24.2 mph N/A   Overcast
9:54 PM 26.1 °F 15.0 °F 15.1 °F 63% 29.84 in 10.0 mi West 12.7 mph 20.7 mph N/A   Overcast
10:54 PM 25.0 °F 13.1 °F 15.1 °F 66% 29.86 in 10.0 mi West 13.8 mph 21.9 mph N/A   Overcast
11:54 PM 25.0 °F 12.2 °F 14.0 °F 63% 29.86 in 10.0 mi WSW 16.1 mph - N/A   Overcast